CW9520 Weather Reports


Display with metric or nautical units.
time (UTC)temp
F
wind
direction
speed
MPH
gust
MPH
rain 1hr
in
rain 24hr
in
rain mn
in
humidity
%
barometer
mb
20190224031036 50 296 0.0 2.0 0.00 0.00 0.00 56 1025.2
20190224030536 51 296 1.0 2.0 0.00 0.00 0.00 56 1025.3
20190224030036 51 298 2.0 2.0 0.00 0.00 0.00 55 1025.2
20190224025536 51 298 1.0 2.0 0.00 0.00 0.00 54 1025.2
20190224025036 51 313 0.0 3.0 0.00 0.00 0.00 54 1025.2
20190224024536 52 313 1.0 3.0 0.00 0.00 0.00 53 1025.1
20190224024036 52 291 1.0 2.0 0.00 0.00 0.00 53 1025.1
20190224023536 52 291 0.0 2.0 0.00 0.00 0.00 53 1025.1
20190224023036 52 300 2.0 3.0 0.00 0.00 0.00 52 1025.1
20190224022536 52 291 1.0 4.0 0.00 0.00 0.00 52 1025.0
20190224022036 52 313 1.0 4.0 0.00 0.00 0.00 52 1024.9
20190224021536 52 315 2.0 4.0 0.00 0.00 0.00 52 1024.9
20190224021036 53 308 0.0 2.0 0.00 0.00 0.00 52 1024.9
20190224020536 53 308 0.0 4.0 0.00 0.00 0.00 51 1024.9
20190224020036 53 337 1.0 5.0 0.00 0.00 0.00 51 1024.8
20190224015536 53 288 2.0 4.0 0.00 0.00 0.00 50 1024.8
20190224015036 53 294 1.0 6.0 0.00 0.00 0.00 50 1024.9
20190224014536 54 312 3.0 4.0 0.00 0.00 0.00 50 1024.8
20190224014036 54 254 2.0 3.0 0.00 0.00 0.00 49 1024.6
20190224013536 54 333 0.0 5.0 0.00 0.00 0.00 49 1024.6
20190224013036 54 315 5.0 7.0 0.00 0.00 0.00 48 1024.5
20190224012536 54 312 1.0 7.0 0.00 0.00 0.00 48 1024.5
20190224012036 55 315 2.0 6.0 0.00 0.00 0.00 47 1024.5
20190224011536 55 290 4.0 6.0 0.00 0.00 0.00 47 1024.5
20190224011036 55 307 3.0 9.0 0.00 0.00 0.00 46 1024.5
20190224010537 55 306 5.0 7.0 0.00 0.00 0.00 46 1024.4
20190224010036 55 309 5.0 7.0 0.00 0.00 0.00 45 1024.4
20190224005536 56 290 5.0 7.0 0.00 0.00 0.00 45 1024.3
20190224005036 56 340 2.0 3.0 0.00 0.00 0.00 44 1024.1
20190224004536 56 314 1.0 4.0 0.00 0.00 0.00 44 1024.1
20190224004036 56 321 3.0 4.0 0.00 0.00 0.00 43 1024.2
20190224003536 56 342 1.0 4.0 0.00 0.00 0.00 43 1024.2
20190224003036 57 355 2.0 6.0 0.00 0.00 0.00 42 1024.1
20190224002536 57 23 1.0 6.0 0.00 0.00 0.00 42 1024.1
20190224002036 57 294 3.0 7.0 0.00 0.00 0.00 42 1024.1
20190224001536 57 262 2.0 6.0 0.00 0.00 0.00 41 1024.2
20190224001036 57 313 2.0 7.0 0.00 0.00 0.00 41 1024.2
20190224000536 58 307 3.0 6.0 0.00 0.00 0.00 41 1024.2
20190224000036 58 304 2.0 8.0 0.00 0.00 0.00 40 1024.2
20190223235536 58 303 1.0 9.0 0.00 0.00 0.00 39 1024.2
20190223235036 59 312 2.0 8.0 0.00 0.00 0.00 37 1024.2
20190223234536 60 333 4.0 8.0 0.00 0.00 0.00 34 1024.3
20190223234036 60 329 3.0 4.0 0.00 0.00 0.00 32 1024.2
20190223233536 60 317 2.0 6.0 0.00 0.00 0.00 30 1024.2
20190223233036 60 311 3.0 5.0 0.00 0.00 0.00 29 1024.2
20190223232536 59 266 2.0 7.0 0.00 0.00 0.00 29 1024.1
20190223232036 60 302 8.0 8.0 0.00 0.00 0.00 28 1024.2
20190223231536 61 251 7.0 11.0 0.00 0.00 0.00 29 1024.2
20190223231036 61 284 4.0 11.0 0.00 0.00 0.00 28 1024.2
20190223230536 61 194 1.0 4.0 0.00 0.00 0.00 26 1024.2
20190223230036 61 316 2.0 8.0 0.00 0.00 0.00 26 1024.2
20190223225537 61 269 2.0 4.0 0.00 0.00 0.00 27 1024.2
20190223225036 61 60 2.0 6.0 0.00 0.00 0.00 27 1024.1
20190223224536 61 300 2.0 5.0 0.00 0.00 0.00 27 1024.1
20190223224036 61 229 2.0 3.0 0.00 0.00 0.00 28 1024.2
20190223223536 61 265 1.0 6.0 0.00 0.00 0.00 28 1024.2
20190223223036 60 270 3.0 4.0 0.00 0.00 0.00 28 1024.2
20190223222536 60 325 3.0 6.0 0.00 0.00 0.00 27 1024.2
20190223222036 60 312 4.0 6.0 0.00 0.00 0.00 28 1024.2
20190223221536 60 269 4.0 6.0 0.00 0.00 0.00 28 1024.2
20190223221036 60 213 0.0 4.0 0.00 0.00 0.00 27 1024.2
20190223220536 60 16 2.0 8.0 0.00 0.00 0.00 27 1024.2
20190223220036 60 309 5.0 7.0 0.00 0.00 0.00 27 1024.2
20190223215536 60 264 4.0 7.0 0.00 0.00 0.00 29 1024.2
20190223215036 60 294 3.0 6.0 0.00 0.00 0.00 27 1024.2
20190223214536 60 311 3.0 4.0 0.00 0.00 0.00 28 1024.2
20190223214036 60 129 2.0 4.0 0.00 0.00 0.00 29 1024.3
20190223213536 59 167 3.0 5.0 0.00 0.00 0.00 30 1024.3
20190223213036 59 99 2.0 6.0 0.00 0.00 0.00 30 1024.4
20190223212536 60 155 3.0 4.0 0.00 0.00 0.00 29 1024.4
20190223212036 60 210 1.0 3.0 0.00 0.00 0.00 29 1024.4
20190223211536 59 248 2.0 5.0 0.00 0.00 0.00 31 1024.5
20190223211036 59 115 2.0 4.0 0.00 0.00 0.00 31 1024.5
20190223210536 58 182 3.0 5.0 0.00 0.00 0.00 31 1024.5
20190223210036 58 250 2.0 4.0 0.00 0.00 0.00 31 1024.5
20190223205536 58 216 3.0 7.0 0.00 0.00 0.00 30 1024.6
20190223205036 57 78 2.0 6.0 0.00 0.00 0.00 31 1024.7
20190223204536 57 169 5.0 6.0 0.00 0.00 0.00 31 1024.8
20190223204036 58 180 3.0 4.0 0.00 0.00 0.00 30 1024.9
20190223203536 57 77 3.0 5.0 0.00 0.00 0.00 30 1025.0
20190223203036 57 89 3.0 4.0 0.00 0.00 0.00 31 1025.1
20190223202536 57 130 3.0 3.0 0.00 0.00 0.00 31 1025.2
20190223202036 57 58 3.0 4.0 0.00 0.00 0.00 30 1025.2
20190223201536 57 75 2.0 5.0 0.00 0.00 0.00 30 1025.2
20190223201036 57 23 1.0 4.0 0.00 0.00 0.00 30 1025.3
20190223200536 56 303 1.0 6.0 0.00 0.00 0.00 32 1025.4
20190223200036 56 315 2.0 4.0 0.00 0.00 0.00 31 1025.5
20190223195536 56 275 1.0 4.0 0.00 0.00 0.00 32 1025.7
20190223195036 55 271 2.0 5.0 0.00 0.00 0.00 31 1025.6
20190223194536 56 339 2.0 4.0 0.00 0.00 0.00 31 1025.5
20190223194036 56 49 2.0 4.0 0.00 0.00 0.00 30 1025.5
20190223193536 55 45 1.0 4.0 0.00 0.00 0.00 32 1025.5
20190223193036 54 21 0.0 5.0 0.00 0.00 0.00 31 1025.7
20190223192536 54 327 1.0 4.0 0.00 0.00 0.00 32 1025.7
20190223192036 54 346 2.0 4.0 0.00 0.00 0.00 33 1025.7
20190223191536 54 155 1.0 5.0 0.00 0.00 0.00 33 1025.8
20190223191036 54 117 1.0 4.0 0.00 0.00 0.00 34 1025.8
20190223190536 53 60 3.0 5.0 0.00 0.00 0.00 34 1025.8
20190223190036 53 323 2.0 4.0 0.00 0.00 0.00 35 1025.9
20190223185536 53 292 1.0 4.0 0.00 0.00 0.00 35 1025.9
20190223185036 53 318 4.0 5.0 0.00 0.00 0.00 36 1026.0
20190223184536 53 251 3.0 4.0 0.00 0.00 0.00 39 1026.1
20190223184036 52 21 2.0 4.0 0.00 0.00 0.00 38 1026.2
20190223183536 52 5 4.0 5.0 0.00 0.00 0.00 38 1026.1
20190223183036 52 13 2.0 4.0 0.00 0.00 0.00 39 1026.0
20190223182536 52 304 1.0 4.0 0.00 0.00 0.00 38 1026.1
20190223182036 51 213 2.0 6.0 0.00 0.00 0.00 38 1026.1
20190223181536 52 303 4.0 4.0 0.00 0.00 0.00 39 1026.0
20190223181036 52 110 1.0 6.0 0.00 0.00 0.00 40 1026.0
20190223180536 51 108 4.0 5.0 0.00 0.00 0.00 40 1026.1
20190223180036 51 300 1.0 3.0 0.00 0.00 0.00 41 1026.1
20190223175536 50 106 2.0 3.0 0.00 0.00 0.00 44 1026.1
20190223175036 50 105 2.0 2.0 0.00 0.00 0.00 44 1026.1
20190223174536 49 103 1.0 3.0 0.00 0.00 0.00 44 1026.1
20190223174036 49 115 1.0 2.0 0.00 0.00 0.00 46 1026.2
20190223173536 49 114 1.0 3.0 0.00 0.00 0.00 45 1026.1
20190223173036 48 117 1.0 2.0 0.00 0.00 0.00 48 1026.1
20190223172536 47 115 1.0 3.0 0.00 0.00 0.00 48 1026.2
20190223172036 47 111 1.0 3.0 0.00 0.00 0.00 49 1026.1
20190223171536 45 114 2.0 3.0 0.00 0.00 0.00 50 1026.1
20190223171036 45 138 0.0 1.0 0.00 0.00 0.00 51 1026.2
20190223170536 44 138 0.0 1.0 0.00 0.00 0.00 52 1026.0
20190223170036 43 138 1.0 1.0 0.00 0.00 0.00 52 1026.0
20190223165536 43 138 0.0 1.0 0.00 0.00 0.00 52 1026.0
20190223165036 43 138 0.0 2.0 0.00 0.00 0.00 52 1025.8
20190223164536 43 138 2.0 2.0 0.00 0.00 0.00 52 1025.9
20190223164036 43 138 0.0 1.0 0.00 0.00 0.00 53 1025.8
20190223163536 42 138 1.0 2.0 0.00 0.00 0.00 53 1025.7
20190223163036 42 138 1.0 2.0 0.00 0.00 0.00 54 1025.7
20190223162536 42 138 0.0 1.0 0.00 0.00 0.00 56 1025.7
20190223162036 42 138 1.0 2.0 0.00 0.00 0.00 54 1025.6
20190223161536 41 138 0.0 1.0 0.00 0.00 0.00 56 1025.7
20190223161036 40 138 1.0 1.0 0.00 0.00 0.00 57 1025.6
20190223160536 40 180 1.0 2.0 0.00 0.00 0.00 57 1025.5
20190223160036 39 180 0.0 2.0 0.00 0.00 0.00 60 1025.6
20190223155536 38 180 0.0 1.0 0.00 0.00 0.00 61 1025.4
20190223155036 37 180 0.0 0.0 0.00 0.00 0.00 65 1025.3
20190223154536 36 180 0.0 0.0 0.00 0.00 0.00 67 1025.2
20190223154036 35 180 0.0 0.0 0.00 0.00 0.00 70 1025.1
20190223153536 34 180 0.0 0.0 0.00 0.00 0.00 72 1025.1
20190223153036 33 180 0.0 0.0 0.00 0.00 0.00 73 1025.0
20190223152536 33 180 0.0 0.0 0.00 0.00 0.00 74 1024.9
20190223152036 32 180 0.0 1.0 0.00 0.00 0.00 74 1024.9
20190223151536 32 180 0.0 2.0 0.00 0.00 0.00 74 1024.8
20190223151036 32 180 0.0 3.0 0.00 0.00 0.00 74 1024.7
20190223150536 32 178 1.0 2.0 0.00 0.00 0.00 74 1024.8
20190223150036 32 178 0.0 1.0 0.00 0.00 0.00 74 1024.7
20190223145536 32 178 1.0 2.0 0.00 0.00 0.00 74 1024.6
20190223145036 32 178 2.0 2.0 0.00 0.00 0.00 74 1024.4
20190223144536 32 178 1.0 2.0 0.00 0.00 0.00 74 1024.4
20190223144036 32 178 1.0 2.0 0.00 0.00 0.00 74 1024.5
20190223143536 31 178 0.0 1.0 0.00 0.00 0.00 73 1024.5
20190223143036 31 178 0.0 0.0 0.00 0.00 0.00 73 1024.4
20190223142536 32 178 0.0 0.0 0.00 0.00 0.00 73 1024.4
20190223142036 32 178 0.0 0.0 0.00 0.00 0.00 72 1024.3
20190223141536 32 178 0.0 0.0 0.00 0.00 0.00 72 1024.0
20190223141036 32 178 0.0 1.0 0.00 0.00 0.00 72 1023.9
20190223140536 32 178 0.0 2.0 0.00 0.00 0.00 73 1023.8
20190223140036 32 178 0.0 1.0 0.00 0.00 0.00 72 1023.9
20190223135536 32 178 1.0 2.0 0.00 0.00 0.00 71 1023.9
20190223135036 33 178 0.0 0.0 0.00 0.00 0.00 71 1024.1
20190223134536 33 178 0.0 0.0 0.00 0.00 0.00 71 1024.1
20190223134036 33 178 0.0 2.0 0.00 0.00 0.00 71 1024.1
20190223133536 33 178 1.0 2.0 0.00 0.00 0.00 71 1024.1
20190223133036 33 178 0.0 2.0 0.00 0.00 0.00 70 1023.9
20190223132536 34 178 0.0 2.0 0.00 0.00 0.00 70 1023.8
20190223132036 34 178 0.0 3.0 0.00 0.00 0.00 69 1023.7
20190223131536 34 120 0.0 3.0 0.00 0.00 0.00 69 1023.6
20190223131036 34 187 1.0 2.0 0.00 0.00 0.00 70 1023.5
20190223130536 34 187 1.0 2.0 0.00 0.00 0.00 70 1023.3
20190223130036 33 187 1.0 2.0 0.00 0.00 0.00 71 1023.4
20190223125536 33 213 1.0 2.0 0.00 0.00 0.00 71 1023.3
20190223125036 33 215 1.0 2.0 0.00 0.00 0.00 72 1023.5
20190223124536 33 215 1.0 2.0 0.00 0.00 0.00 72 1023.5
20190223124036 33 222 2.0 2.0 0.00 0.00 0.00 72 1023.6
20190223123536 33 222 1.0 2.0 0.00 0.00 0.00 72 1023.6
20190223123036 33 222 1.0 2.0 0.00 0.00 0.00 72 1023.6
20190223122536 33 222 1.0 2.0 0.00 0.00 0.00 72 1023.5
20190223122036 33 222 1.0 2.0 0.00 0.00 0.00 72 1023.6
20190223121536 33 222 0.0 2.0 0.00 0.00 0.00 72 1023.6
20190223121036 33 222 1.0 1.0 0.00 0.00 0.00 71 1023.5
20190223120536 33 222 1.0 2.0 0.00 0.00 0.00 71 1023.5
20190223120036 33 222 1.0 2.0 0.00 0.00 0.00 72 1023.4
20190223115536 33 232 1.0 2.0 0.00 0.00 0.00 72 1023.4
20190223115036 33 232 0.0 2.0 0.00 0.00 0.00 72 1023.4
20190223114536 33 232 0.0 2.0 0.00 0.00 0.00 72 1023.5
20190223114036 33 232 0.0 2.0 0.00 0.00 0.00 72 1023.6
20190223113536 33 232 0.0 2.0 0.00 0.00 0.00 72 1023.6
20190223113036 33 232 1.0 1.0 0.00 0.00 0.00 71 1023.6
20190223112536 33 232 0.0 2.0 0.00 0.00 0.00 71 1023.7
20190223112036 33 232 1.0 2.0 0.00 0.00 0.00 71 1023.8
20190223111536 33 232 0.0 1.0 0.00 0.00 0.00 71 1023.8
20190223111036 33 232 1.0 2.0 0.00 0.00 0.00 71 1023.8
20190223110536 33 232 0.0 2.0 0.00 0.00 0.00 71 1023.7
20190223110036 33 232 2.0 2.0 0.00 0.00 0.00 71 1023.7
20190223105536 33 232 1.0 2.0 0.00 0.00 0.00 71 1023.7
20190223105036 33 232 0.0 2.0 0.00 0.00 0.00 71 1023.8
20190223104536 33 232 1.0 2.0 0.00 0.00 0.00 71 1023.8
20190223104036 33 232 1.0 2.0 0.00 0.00 0.00 71 1023.8
20190223103536 33 232 0.0 1.0 0.00 0.00 0.00 70 1023.9
20190223103036 33 232 1.0 2.0 0.00 0.00 0.00 70 1023.9
20190223102536 33 232 0.0 2.0 0.00 0.00 0.00 70 1023.9
20190223102036 33 232 1.0 0.0 0.00 0.00 0.00 70 1023.8
20190223101536 33 232 0.0 1.0 0.00 0.00 0.00 70 1023.8
20190223101036 33 232 0.0 0.0 0.00 0.00 0.00 70 1023.7
20190223100536 33 232 0.0 1.0 0.00 0.00 0.00 70 1023.7
20190223100036 34 232 1.0 2.0 0.00 0.00 0.00 70 1023.8
20190223095536 34 232 1.0 2.0 0.00 0.00 0.00 70 1023.9
20190223095036 34 232 1.0 1.0 0.00 0.00 0.00 70 1023.9
20190223094536 34 232 0.0 2.0 0.00 0.00 0.00 70 1023.9
20190223094036 34 232 1.0 2.0 0.00 0.00 0.00 70 1023.9
20190223093536 34 232 1.0 2.0 0.00 0.00 0.00 70 1023.8
20190223093036 34 232 0.0 2.0 0.00 0.00 0.00 70 1023.8
20190223092536 34 232 0.0 0.0 0.00 0.00 0.00 70 1023.7
20190223092036 34 232 0.0 1.0 0.00 0.00 0.00 70 1023.7
20190223091536 34 232 0.0 2.0 0.00 0.00 0.00 69 1023.6
20190223091036 34 232 1.0 1.0 0.00 0.00 0.00 69 1023.7
20190223090536 34 232 0.0 1.0 0.00 0.00 0.00 69 1023.6
20190223090036 34 232 0.0 0.0 0.00 0.00 0.00 69 1023.4
20190223085536 34 232 0.0 0.0 0.00 0.00 0.00 68 1023.3
20190223085036 34 232 0.0 1.0 0.00 0.00 0.00 68 1023.3
20190223084536 34 232 1.0 2.0 0.00 0.00 0.00 68 1023.1
20190223084036 34 232 0.0 2.0 0.00 0.00 0.00 68 1023.0
20190223083536 34 232 1.0 2.0 0.00 0.00 0.00 68 1023.1
20190223082539 35 232 0.0 0.0 0.00 0.00 0.00 68 1023.1
20190223082039 35 232 0.0 2.0 0.00 0.00 0.00 68 1023.0
20190223081539 35 232 1.0 2.0 0.00 0.00 0.00 68 1023.0
20190223081039 35 232 0.0 0.0 0.00 0.00 0.00 68 1023.0
20190223080539 35 232 0.0 0.0 0.00 0.00 0.00 67 1023.2
20190223080039 35 232 0.0 0.0 0.00 0.00 0.00 67 1023.4
20190223075539 35 232 0.0 1.0 0.00 0.00 0.00 67 1023.2
20190223075039 35 232 1.0 2.0 0.00 0.00 0.00 67 1023.2
20190223074539 35 232 0.0 2.0 0.00 0.00 0.00 67 1023.1
20190223074039 35 232 1.0 2.0 0.00 0.00 0.00 67 1023.2
20190223073539 35 232 1.0 1.0 0.00 0.00 0.00 67 1023.3
20190223073039 35 232 1.0 2.0 0.00 0.00 0.00 67 1023.2
20190223072539 35 232 0.0 1.0 0.00 0.00 0.00 67 1023.2
20190223072039 35 232 1.0 2.0 0.00 0.00 0.00 67 1023.3
20190223071539 35 232 0.0 2.0 0.00 0.00 0.00 66 1023.2
20190223071040 36 232 0.0 2.0 0.00 0.00 0.00 66 1023.1
20190223070539 36 232 0.0 2.0 0.00 0.00 0.00 66 1023.0
20190223070039 36 232 1.0 1.0 0.00 0.00 0.00 66 1022.9
20190223065539 36 232 0.0 0.0 0.00 0.00 0.00 66 1022.9
20190223065039 36 232 0.0 1.0 0.00 0.00 0.00 66 1022.9
20190223064539 36 232 1.0 2.0 0.00 0.00 0.00 66 1022.8
20190223064039 36 232 1.0 2.0 0.00 0.00 0.00 65 1022.7
20190223063539 36 232 1.0 2.0 0.00 0.00 0.00 65 1022.7
20190223063039 36 232 1.0 1.0 0.00 0.00 0.00 65 1022.8
20190223062539 36 232 0.0 1.0 0.00 0.00 0.00 65 1022.8
20190223062040 36 232 0.0 1.0 0.00 0.00 0.00 65 1022.7
20190223061539 36 232 0.0 0.0 0.00 0.00 0.00 64 1022.6
20190223061039 36 232 0.0 1.0 0.00 0.00 0.00 64 1022.5
20190223060539 36 232 0.0 0.0 0.00 0.00 0.00 64 1022.5
20190223060040 37 232 0.0 0.0 0.00 0.00 0.00 63 1022.4
20190223055539 37 232 0.0 2.0 0.00 0.00 0.00 63 1022.4
20190223055039 37 232 0.0 2.0 0.00 0.00 0.00 63 1022.4
20190223054540 37 232 0.0 0.0 0.00 0.00 0.00 62 1022.3
20190223054039 37 232 0.0 0.0 0.00 0.00 0.00 62 1022.3
20190223053539 37 232 0.0 0.0 0.00 0.00 0.00 62 1022.3
20190223053039 37 232 0.0 1.0 0.00 0.00 0.00 62 1022.2
20190223052539 37 232 0.0 0.0 0.00 0.00 0.00 61 1022.2
20190223052039 37 232 0.0 1.0 0.00 0.00 0.00 61 1022.1
20190223051539 38 232 0.0 1.0 0.00 0.00 0.00 60 1022.1
20190223051039 38 232 0.0 0.0 0.00 0.00 0.00 60 1022.0
20190223050539 38 232 0.0 0.0 0.00 0.00 0.00 60 1021.9
20190223050040 38 232 0.0 0.0 0.00 0.00 0.00 59 1021.8
20190223045539 38 232 0.0 0.0 0.00 0.00 0.00 58 1021.8
20190223045039 38 232 0.0 0.0 0.00 0.00 0.00 58 1021.8
20190223044539 38 232 0.0 0.0 0.00 0.00 0.00 59 1021.7
20190223044039 39 232 0.0 0.0 0.00 0.00 0.00 57 1021.7
20190223043539 39 232 0.0 0.0 0.00 0.00 0.00 57 1021.6
20190223043039 39 232 0.0 0.0 0.00 0.00 0.00 56 1021.6
20190223042539 39 232 0.0 1.0 0.00 0.00 0.00 56 1021.6
20190223042039 39 232 0.0 2.0 0.00 0.00 0.00 56 1021.6
20190223041539 39 232 0.0 2.0 0.00 0.00 0.00 55 1021.5
20190223041039 39 232 0.0 0.0 0.00 0.00 0.00 55 1021.4
20190223040539 39 232 0.0 2.0 0.00 0.00 0.00 54 1021.3
20190223040039 40 232 0.0 2.0 0.00 0.00 0.00 53 1021.2
20190223035539 40 232 0.0 2.0 0.00 0.00 0.00 53 1021.2
20190223035039 40 232 1.0 2.0 0.00 0.00 0.00 52 1021.1
20190223034539 40 232 0.0 1.0 0.00 0.00 0.00 52 1021.0
20190223034039 40 232 0.0 1.0 0.00 0.00 0.00 51 1021.0
20190223033540 41 232 0.0 1.0 0.00 0.00 0.00 52 1020.9
20190223033039 41 232 0.0 0.0 0.00 0.00 0.00 53 1020.8
20190223032539 41 232 0.0 0.0 0.00 0.00 0.00 51 1020.7
20190223032039 41 232 0.0 1.0 0.00 0.00 0.00 50 1020.7
20190223031539 41 232 0.0 2.0 0.00 0.00 0.00 50 1020.6